User: anonymous   Login
Location: Bushey
(51.6333°N, 0.3667°W)
Time: 15:45:08
(UTC+00:00)
Language:

MOS 1 Rocket - Orbit

View from above orbital plane
View from above orbital plane
View from above satellite
View from above satellite

Ground track
Ground track

The orbit data is extracted from the following two-line orbital elements,

1 17528U 87018B   21135.91644479  .00000116  00000-0  34258-4 0  9997
2 17528  97.4087 311.7495 0152516 139.4115 221.8573 14.51055670786434
Epoch (UTC): 15 May 2021 21:59:40
Eccentricity: 0.0152516
inclination: 97.4087°
perigee height: 614 km
apogee height: 830 km
right ascension of ascending node: 311.7495°
argument of perigee: 139.4115°
revolutions per day: 14.51055670
mean anomaly at epoch: 221.8573°
orbit number at epoch: 78643

The dashed part of the orbit path shows where the satellite is in the earth's shadow,  

DLR